Regional Weather Roundup
Issued by NWS Sterling, VA

Home | Current Version | Previous Version | Graphics & Text | Print | Product List | Glossary On
Versions: 1 2 3 4 5 6 7 8 9 10 11 12 13 14 15 16 17 18 19 20 21 22 23 24 25 26 27 28 29 30 31 32 33 34 35 36 37 38 39 40 41 42 43 44 45 46 47 48 49 50
000
ASUS41 KLWX 021410
RWRLWX

REGIONAL WEATHER ROUNDUP
NATIONAL WEATHER SERVICE BALTIMORE MD/WASHINGTON DC
1000 AM EDT SUN AUG 02 2015

Note: "FAIR" indicates few or no clouds below 12,000 feet
with no significant weather and/or obstructions to visibility.
 TC=TEMPERATURE CELSIUS

 * =Non NWS site. Station does not report precipitation (e.g. rain,
    snow, etc.), thunder, or fog.

DCZ001-MDZ009-015-VAZ040>042-051-053>054-021500-
WASHINGTON METRO

CITY           SKY/WX    TMP DP  RH WIND       PRES   REMARKS
WASHINGTON NAT PTSUNNY   81  61  50 VRB6      29.97R
DULLES         PTSUNNY   77  61  57 W5        29.98R
ANDREWS AFB    PTSUNNY   79  59  50 NW6       29.96R
FT BELVOIR     PTSUNNY   79  62  57 W5        29.97R
LEESBURG*      PTSUNNY   79  64  61 W9        29.99S
MANASSAS*      SUNNY     75  64  69 CALM      29.98R
GAITHERSBURG*  SUNNY     75  61  60 NW3       30.01S

$$

MDZ006>007-011-014-021500-
BALTIMORE METRO

CITY           SKY/WX    TMP DP  RH WIND       PRES   REMARKS
BWI AIRPORT    PTSUNNY   80  62  54 CALM      29.95S
MD SCIENCE CTR   N/A     83  58  42 MISG      29.95S
MARTIN STATE   MOSUNNY   81  63  54 CALM      29.97R
ANNAPOLIS      PTSUNNY   78  63  59 NW6       29.95R
FORT MEADE*    PTSUNNY   75  66  73 CALM      29.98S

$$

MDZ012-015-019>023-021500-
MARYLAND EASTERN SHORE

CITY           SKY/WX    TMP DP  RH WIND       PRES   REMARKS
OCEAN CITY     MOSUNNY   83  69  62 MISG      29.93R
SALISBURY      PTSUNNY   79  64  60 NE6       29.94R
BAY BRIDGE AP*   N/A     77  61  57 N3        29.96R
CAMBRIDGE*     PTSUNNY   79  59  50 N6        29.95R
EASTON*        MOSUNNY   82  64  54 N6        29.99R

$$

MDZ017>025-021500-
SOUTHERN MARYLAND

CITY           SKY/WX    TMP DP  RH WIND       PRES   REMARKS
PATUXENT RIVER PTSUNNY   81  62  52 NW9       29.95R
ST INIGOES     PTSUNNY   80  64  58 CALM      29.95R
LEONARDTOWN*   PTSUNNY   79  61  53 CALM      29.97S

$$

MDZ003>005-021500-
NORTH CENTRAL MARYLAND

CITY           SKY/WX    TMP DP  RH WIND       PRES   REMARKS
FREDERICK*     SUNNY     82  64  54 S3        29.99S
HAGERSTOWN APT SUNNY     76  56  49 SW8       29.98F
WESTMINSTER*   SUNNY     75  61  60 SW3       29.99R

$$

MDZ501>502-021500-
WESTERN MARYLAND

CITY           SKY/WX    TMP DP  RH WIND       PRES   REMARKS
OAKLAND*       CLOUDY    64 N/A N/A SW5       30.09R
CUMBERLAND*    SUNNY     72  61  68 S3        30.04S

$$

VAZ025>031-021500-
SHENANDOAH VALLEY

CITY           SKY/WX    TMP DP  RH WIND       PRES   REMARKS
WINCHESTER*    MOSUNNY   77  59  53 SW5       30.00R
FRONT ROYAL*   FAIR      70  59  68 S6        30.00S
LURAY*         FAIR      73  61  64 SW3       30.02S
NEW MARKET*    FAIR      69  61  74 CALM      30.01F
STAUNTON*      PTSUNNY   71  59  66 CALM      30.05F
WAYNESBORO*    FAIR      71  58  64 CALM      30.04S

$$

WVZ021-048>050-054>055-021500-
EASTERN WEST VIRGINIA PANHANDLE

CITY           SKY/WX    TMP DP  RH WIND       PRES   REMARKS
MARTINSBURG    SUNNY     76  59  55 S5        29.99S
PETERSBURG*    MOSUNNY   71  71 100 CALM      30.03S

$$

VAZ036>039-050-021500-
CENTRAL FOOTHILLS

CITY           SKY/WX    TMP DP  RH WIND       PRES   REMARKS
CHARLOTTESVILL MOSUNNY   77  63  61 CALM      30.00R
CULPEPER*      CLOUDY    75  62  62 CALM      29.99S
ORANGE*        PTSUNNY   79  63  57 CALM      30.00F
GORDONSVILLE*  FAIR      77  63  61 W3        29.99S
WARRENTON*     FAIR      78  68  72 CALM      29.98S

$$

VAZ055>057-021500-
NORTH AND CENTRAL PIEDMONT

CITY           SKY/WX    TMP DP  RH WIND       PRES   REMARKS
FREDERICKSBRG* CLOUDY    80  64  57 N5        29.96S
STAFFORD*      PTSUNNY   78  60  52 N7        30.01S

$$

NCZ024-NYZ072-PAZ021-071-VAZ022-071-021500-
OTHER REGIONAL OBSERVATIONS

CITY           SKY/WX    TMP DP  RH WIND       PRES   REMARKS
NEW YORK CITY  SUNNY     80  58  46 CALM      29.95S
PHILADELPHIA   MOSUNNY   83  59  44 CALM      29.94S
PITTSBURGH     MOSUNNY   75  58  55 SW12      29.96S
ROANOKE        MOSUNNY   75  59  57 VRB3      30.06S
RICHMOND       PTSUNNY   83  60  45 N8        29.96S
RALEIGH        PTSUNNY   79  60  52 N6        29.99R

$$

ANZ530>537-021500-
MARINE OBSERVATIONS

STATION/POSITION TIME  TEMP    WIND        PRES
                       AIR SEA DIR/SP/G
                 (UTC) (F)     (DEG/KT/KT) (MB)
THOMAS PT LIGHT  NOT AVBL
BALT KEY BRIDGE  1300   76     240/  4/  5 1014.0R
COVE POINT       1300   77     350/ 11/ 13 1014.6R
LEWISETTA        1300   79 83  350/  5/  7 1013.5R
SOLOMONS ISLAND  1300      83                N/A
PINEY POINT      1300           10/  8/  9   N/A

$$



USA.gov is the U.S. government's official web portal to all federal, state and local government web resources and services.